STARLINK-3182, 51469

Orbit data source: Space-Track

STARLINK-3182, 51469 is a payload satellite owned by SpaceX/Seattle (US) in LEO that was launched on Thu, 03 Feb 2022 UTC via an FALCON 9 launch vehicle from the Air Force Eastern Test Range (AFETR). Payload-class satellites include a variety of spacecraft equipped with specific instruments for various scientific and technological missions. These include communications satellites like Starlink; space stations such as the ISS; scientific satellites like the Hubble; Earth observation satellites from companies like Planet Labs, Umbra, and HawkEye 360; GPS; miniature CubeSats for education and research; and military/defense satellites.

Loading next visibility...
Identifier
51469, 2022-010P
Orbit
LEO
Country
Flag of USUS
Related business
Manufacturer
SpaceX/Seattle
Mission
Operational Commercial Communications
Bus & Motor
STARLINK, Unknown motor
Mass
297 kg wet, ~275 kg dry
Launch date (UTC)
2022-02-03 (4 years ago)
Launch vehicle
FALCON 9
Launch site
Air Force Eastern Test Range (AFETR)
Object type
Payload
Rocket body
Debris
Shape & HBR
Box + 1 Pan, 10.1 m
Radar Cross Section
13.562 m², Large (>1 m²)

Expand to show TLE details & history
Last TLE update: 2 days ago

TLE from 2 days ago
0 STARLINK-3182
1 51469U 22010P   26171.30215595 -.00000184  00000-0  65302-5 0  9992
2 51469  53.1595 178.3619 0001215  87.1624 272.9506 15.08834604242319
Epoch: 2026-06-20T07:15Z
TLE epoch observation values (Epoch: 2026-06-20T07:15:06.274Z)
Latitude
-0.00004°
Longitude
161.067°
Altitude
540.608 km
Speed
7.593 km/s
True Right ascension
11h 53m 26s
True Declination
0° 00' 00"
Sunlit
Object was in daylight at epoch
Visualization orbit readout
Latitude
Unknown
Longitude
Unknown
Altitude
Unknown
Speed
Unknown
Apparent Right ascension
Unknown
Apparent Declination
Unknown
Sunlit
N/A
Visualization observer readout
Local Sidereal Time
02:13:16
Azimuth
Unknown
Elevation
Unknown
Doppler factor
Unknown
Orbital elements
Apogee altitude
540.855 km
Perigee altitude
539.174 km
Semi-major axis
6,918.151 km
Eccentricity
0.00012
Inclination
53.1595°
RAAN
178.3619°
Arg. of periapsis
87.1624°
True anomaly
272.9367°
Mean anomaly
272.9506°
Eccentric anomaly
272.94365°
Mean motion
3.77188 °/min
Orbital period
95.44 mins
BSTAR
0.0000065302
Loading maneuver chart data...
Computing Atmospheric mass density...

Documentation

Showing up to 5 results
|